Regional Weather Roundup
Issued by NWS Burlington, VT

Current Version | Previous Version | Text Only | Print | Product List | Glossary Off
Versions: 1 2 3 4 5 6 7 8 9 10 11 12 13 14 15 16 17 18 19 20 21 22 23 24 25 26 27 28 29 30 31 32 33 34 35 36 37 38 39 40 41 42 43 44 45 46 47 48 49 50

000
ASUS41 KBTV 031430
RWRBTV
VERMONT REGIONAL WEATHER ROUNDUP
NATIONAL WEATHER SERVICE BURLINGTON VT
1000 AM EDT TUE MAY 03 2016

NOTE: "FAIR" INDICATES FEW OR NO CLOUDS BELOW 12,000 FEET WITH NO
SIGNIFICANT WEATHER AND/OR OBSTRUCTIONS TO VISIBILITY.

* THESE REPORTS ARE NOT UNDER NWS QUALITY CONTROL AND/OR DO NOT
  REPORT WEATHER SUCH AS PRECIPITATION AND FOG.

VTZ001>019-031500-
_____VERMONT_____


CITY           SKY/WX    TMP DP  RH WIND       PRES   REMARKS
BURLINGTON     CLOUDY    44  37  76 N6        29.95S
MONTPELIER     CLOUDY    41  37  86 NW6       29.96S
MORRISVILLE    CLOUDY    42  36  79 NW6       29.95R
ST. JOHNSBURY*   N/A     45  38  76 MISG      29.91S
LYNDONVILLE*   CLOUDY    42  36  80 NW3       29.93S
MIDDLEBURY*    CLOUDY    46  37  72 N7        29.93F
RUTLAND*       CLOUDY    46  39  76 N6        29.93
SPRINGFIELD    CLOUDY    47  38  71 VRB3      29.92F
HIGHGATE*      CLOUDY    44  37  76 NE6       29.95S
NEWPORT*       CLOUDY    40  36  88 NW5       29.94S
BENNINGTON     CLOUDY    50  43  77 VRB3      29.90F
SUTTON*          N/A     41 N/A N/A MISG        N/A
GALLUP MILLS*    N/A     41 N/A N/A MISG        N/A
UNION VILLAGE*   N/A     46 N/A N/A MISG        N/A
MT. MANSFIELD*   N/A     32 N/A N/A CALM        N/A

_____LAKE CHAMPLAIN_____


CITY           SKY/WX    TMP DP  RH WIND       PRES   REMARKS
COLCHESTER RF*   N/A     43  39  87 N8          N/A
DIAMOND ISL*     N/A     45  37  76 N14         N/A

$$

NYZ007-026>031-035-052-083-087-031500-
_____NORTHERN NEW YORK_____


CITY           SKY/WX    TMP DP  RH WIND       PRES   REMARKS
SARANAC LAKE   PTSUNNY   45  35  68 NE7       29.89F
MASSENA        PTSUNNY   46  40  79 NE3       29.96F
OGDENSBURG*    PTSUNNY   48  45  87 NE5       29.95F
STARK FALLS*     N/A     50 N/A N/A N5          N/A
WATERTOWN      MOSUNNY   49  41  74 NE10      29.92F
FT DRUM        PTSUNNY   45  45 100 NE8       29.92F
ALBANY         CLOUDY    49  42  77 N9        29.92F
GLENS FALLS    CLOUDY    48  41  76 N3        29.93F

$$
NHZ002-005-011-031500-
_____NEW HAMPSHIRE_____


CITY           SKY/WX    TMP DP  RH WIND       PRES   REMARKS
LEBANON        CLOUDY    48  39  71 NW5       29.91F
KEENE          CLOUDY    48  41  76 N3        29.92F
MT WASHINGTON  CLOUDY    32  23  69 NW20        N/A  WCI  20
PLYMOUTH       CLOUDY    48  40  72 W3        29.91S
WHITEFIELD     CLOUDY    45  38  76 N3        29.91S

$$

_____REGIONAL QUEBEC LOCATIONS_____


CITY           SKY/WX    TMP DP  RH WIND       PRES   REMARKS
MONTREAL       PTSUNNY   48  37  66 VRB2      29.94F
QUEBEC CITY    PTSUNNY   43  37  81 E6        29.95S
SHERBROOKE     CLOUDY    41  37  87 SW5       29.91F

_____REGIONAL ONTARIO LOCATIONS_____


CITY           SKY/WX    TMP DP  RH WIND       PRES   REMARKS
OTTAWA         MOSUNNY   50  39  66 VRB3      29.94F

______KEY______
VSB  - VISIBILITY IN MILES
WCI  - WIND CHILL INDEX
HX   - HEAT INDEX
$$
NNNN



USA.gov is the U.S. government's official web portal to all federal, state and local government web resources and services.